www.pogodaiklimat.ru

Погода и климат >> Архив погоды >> Норвегия >> Стрын-Крокен


ПОГОДА в Стрын-Крокене

  • Прогноз погоды в Стрын-Крокене
  • Монитор погоды в Стрын-Крокене

АРХИВ ПОГОДЫ в Стрын-Крокене

Время (UTC), дата Ветер
(напр.,м/с)
 
Видим.   Явления Облачность Т
(С)
Тd
(С)
f
(%)
Тe
(С)
Тes
(С)
Комфортность P
(гПа)
Po
(гПа)
Тmin
(С)
Tmax
(С)
R
(мм)
R24
(мм)
S
(см)
18 18.08 штиль 0
{7}
н/о н/о +13.5 +9.9 79 +13 +13 996.9 972.7 +18.5 0.2
19 18.08 В 1 н/о н/о +12.8 +9.6 81 +13 +13 996.9 972.6
20 18.08 Ю 1 н/о н/о +11.6 +7.3 75 +12 +12 996.8 972.4
22 18.08 штиль 0 н/о н/о +11.5 +7.2 75 +11 +11 996.9 972.5
23 18.08 штиль 0 н/о н/о +9.8 +6.2 78 +9 +9 996.8 972.3
00 19.08 ЮВ 1 н/о н/о +9.3 +6.9 85 +9 +9 996.7 972.1
01 19.08 ЮВ 1
{3}
н/о н/о +9.4 +6.7 83 +9 +9 996.0 971.5
02 19.08 ЮВ 1
{2}
н/о н/о +10.0 +6.9 81 +10 +10 996.0 971.5
03 19.08 ЮВ 1
{2}
н/о н/о +10.4 +7.3 81 +10 +10 995.6 971.2
04 19.08 ЮВ 1
{3}
н/о н/о +10.1 +5.9 75 +10 +10 995.4 970.9
05 19.08 ЮВ 1
{3}
н/о н/о +10.9 +6.7 75 +11 +11 995.1 970.7
06 19.08 ЮВ 2
{4}
н/о н/о +13.5 +6.4 62 +13 +13 994.7 970.5 +9.0
07 19.08 Ю 1
{4}
н/о н/о +14.2 +6.1 58 +15 +15 995.0 970.9
08 19.08 Ю 2
{7}
н/о н/о +14.5 +5.9 56 +14 +14 995.6 971.5
09 19.08 ЮЗ 1
{7}
н/о н/о +12.3 +7.0 70 +12 +12 996.7 972.4 0.3
10 19.08 В 1
{3}
н/о н/о +13.2 +7.9 70 +13 +13 997.1 972.8
11 19.08 В 1
{4}
н/о н/о +14.2 +7.7 65 +15 +15 997.2 973.0
12 19.08 В 1
{7}
н/о н/о +14.1 +7.4 64 +15 +15 998.0 973.8
13 19.08 ЮВ 2
{6}
н/о н/о +14.4 +7.0 61 +14 +14 998.8 974.6 0.1
14 19.08 СВ 1
{8}
н/о н/о +13.3 +9.0 75 +14 +14 999.5 975.2 0.3
15 19.08 Ю 2
{5}
н/о н/о +13.5 +7.7 68 +13 +13 1000.6 976.3 0.3
16 19.08 Ю 2
{6}
н/о н/о +12.7 +9.0 78 +12 +12 1001.1 976.7 1
17 19.08 Ю 1
{4}
н/о н/о +12.6 +9.1 79 +13 +13 1001.6 977.2 0.2
18 19.08 Ю 1
{8}
н/о н/о +11.6 +10.0 90 +11 +11 1001.5 977.0 +11.6 +15.1 3
19 19.08 ЮВ 1
{3}
н/о н/о +10.7 +9.5 92 +10 +10 1002.0 977.4 2
20 19.08 Ю 1
{2}
н/о н/о +10.3 +9.4 94 +10 +10 1002.8 978.2 3
21 19.08 ЮВ 1
{2}
н/о н/о +10.4 +9.6 95 +10 +10 1003.2 978.6 3
22 19.08 ЮВ 1 н/о н/о +10.3 +9.7 96 +10 +10 1003.4 978.8 2
23 19.08 ЮВ 1 н/о н/о +10.4 +9.8 96 +10 +10 1003.8 979.2 2
00 20.08 ЮВ 1 н/о н/о +10.5 +9.7 95 +10 +10 1004.0 979.4
01 20.08 З 1
{4}
н/о н/о +10.4 +9.6 95 +10 +10 1004.4 979.7 2
02 20.08 ЮВ 1
{3}
н/о н/о +10.4 +9.6 95 +10 +10 1004.7 980.0 2
03 20.08 ЮВ 1
{4}
н/о н/о +10.4 +9.3 93 +10 +10 1004.8 980.1 2
04 20.08 ЮЗ 1
{3}
н/о н/о +10.3 +9.5 95 +10 +10 1005.3 980.6 2
05 20.08 ЮВ 1
{3}
н/о н/о +10.2 +9.4 95 +10 +10 1005.8 981.1 0.7
06 20.08 Ю 1
{4}
н/о н/о +10.4 +9.8 96 +10 +10 1006.3 981.6 +10.2 23
07 20.08 ЮВ 1
{3}
н/о н/о +10.9 +10.3 96 +10 +10 1006.7 982.0 1
08 20.08 Ю 1
{3}
н/о н/о +11.8 +10.9 94 +12 +12 1007.3 982.7 0.3
09 20.08 ЮВ 1
{3}
н/о н/о +12.0 +10.6 91 +12 +12 1007.5 982.9 0.4
10 20.08 СВ 1
{2}
н/о н/о +13.0 +11.6 91 +13 +13 1008.0 983.5 0.2
11 20.08 В 2
{3}
н/о н/о +12.4 +10.8 90 +11 +11 1008.8 984.2 0.5
12 20.08 В 2
{4}
н/о н/о +13.2 +11.6 90 +12 +12 1009.3 984.7 0.2
13 20.08 СЗ 1
{3}
н/о н/о +13.0 +12.1 94 +13 +13 1010.1 985.5 1
14 20.08 С 1
{2}
н/о н/о +13.0 +11.7 92 +13 +13 1011.1 986.5 0.5
15 20.08 СЗ 2
{7}
н/о н/о +13.3 +8.8 74 +13 +13 1011.8 987.2 0.1
16 20.08 ЮВ 1
{4}
н/о н/о +13.0 +9.6 80 +13 +13 1012.2 987.6
17 20.08 СЗ 1
{6}
н/о н/о +12.3 +9.0 80 +12 +12 1013.1 988.4
18 20.08 СВ 1
{7}
н/о н/о +11.1 +9.5 90 +11 +11 1013.9 989.1 +10.4 +13.7 5
19 20.08 штиль 0
{1}
н/о н/о +10.5 +9.6 94 +10 +10 1014.7 989.8 0.1
20 20.08 В 1
{2}
н/о н/о +10.0 +9.2 95 +9 +9 1015.4 990.4
21 20.08 СЗ 1
{2}
н/о н/о +9.6 +8.7 94 +9 +9 1016.0 991.0 0.1
22 20.08 Ю 1
{3}
н/о н/о +8.9 +8.0 94 +8 +8 1016.5 991.4
23 20.08 Ю 1
{3}
н/о н/о +9.3 +8.2 93 +9 +9 1017.1 992.0 0.1
00 21.08 З 1
{3}
н/о н/о +9.1 +8.0 93 +8 +8 1017.6 992.5 0.1
01 21.08 С 1
{2}
н/о н/о +9.1 +8.3 95 +8 +8 1018.1 993.0 0.1
02 21.08 Ю 1
{2}
н/о н/о +8.9 +8.1 95 +8 +8 1018.4 993.3
03 21.08 Ю 1
{3}
н/о н/о +8.7 +7.3 91 +8 +8 1018.8 993.6
04 21.08 С 1
{3}
н/о н/о +8.3 +7.4 94 +7 +7 1019.3 994.1
05 21.08 Ю 1
{2}
н/о н/о +8.6 +7.7 94 +8 +8 1020.0 994.8 0.1
06 21.08 СЗ 1
{3}
н/о н/о +9.5 +8.6 94 +9 +9 1020.6 995.5 +8.3 +11.1 0.7
07 21.08 штиль 0
{3}
н/о н/о +10.3 +7.9 85 +10 +10 1021.1 996.0
08 21.08 СЗ 1
{3}
н/о н/о +11.3 +7.6 78 +11 +11 1021.3 996.3
09 21.08 В 1
{3}
н/о н/о +12.5 +6.3 66 +13 +13 1021.4 996.5
10 21.08 СЗ 1
{3}
н/о н/о +12.8 +6.4 65 +13 +13 1021.6 996.7
11 21.08
{3}
н/о н/о +13.2 +6.8 65 1021.5 996.7
12 21.08 С 1
{3}
н/о н/о +13.8 +5.7 58 +14 +14 1021.7 996.9
13 21.08
{3}
н/о н/о +14.0 +6.4 60 1021.7 996.9
14 21.08 СЗ 1
{3}
н/о н/о +14.0 +6.9 62 +14 +14 1021.7 996.9
15 21.08 СВ 1
{3}
н/о н/о +14.2 +6.3 59 +15 +15 1021.6 996.8
16 21.08 ЮВ 1
{3}
н/о н/о +13.5 +6.6 63 +14 +14 1021.5 996.7
18 21.08 ЮВ 1
{3}
н/о н/о +12.3 +7.0 70 +12 +12 1021.0 996.1 +15.1
20 21.08 ЮВ 1 н/о н/о +8.1 +6.7 91 +7 +7 1021.3 996.0
22 21.08 Ю 1 н/о н/о +6.8 +6.1 95 +6 +6 1020.8 995.4
23 21.08 Ю 1 н/о н/о +7.2 +6.5 95 +6 +6 1020.4 995.1
00 22.08 Ю 1 н/о н/о +6.1 +5.5 96 +5 +5 1020.4 995.0
01 22.08 ЮВ 1
{2}
н/о н/о +6.0 +5.4 96 +5 +5 1019.7 994.3
02 22.08 ЮВ 1
{2}
н/о н/о +6.9 +6.2 95 +6 +6 1018.9 993.6
03 22.08 ЮВ 1
{3}
н/о н/о +7.5 +6.4 93 +6 +6 1017.9 992.7
04 22.08 ЮВ 1
{3}
н/о н/о +8.4 +5.9 84 +8 +8 1016.9 991.8
05 22.08 штиль 0
{3}
н/о н/о +9.0 +5.2 77 +8 +8 1016.2 991.1
06 22.08 З 1
{3}
н/о н/о +9.9 +5.7 75 +10 +10 1015.3 990.3 +5.5
07 22.08 В 1
{3}
н/о н/о +10.5 +7.0 79 +10 +10 1014.6 989.7
08 22.08 Ю 1
{3}
н/о н/о +10.7 +7.0 78 +10 +10 1013.9 989.0 0.1
09 22.08 ЮВ 1
{4}
н/о н/о +12.9 +6.9 67 +13 +13 1013.1 988.4
10 22.08 ЮВ 1
{4}
н/о н/о +12.6 +7.3 70 +13 +13 1012.8 988.1 0.1
11 22.08 В 1
{3}
н/о н/о +12.6 +9.8 83 +13 +13 1012.8 988.1
12 22.08 В 2
{4}
н/о н/о +12.3 +10.0 86 +11 +11 1012.7 988.0 0.6
13 22.08 ЮВ 1
{4}
н/о н/о +15.0 +7.6 61 +16 +16 1012.1 987.6
03 23.08 Ю 1
{2}
н/о н/о +9.4 +8.8 96 +9 +9 1011.0 986.1 4
04 23.08 ЮВ 1
{3}
н/о н/о +9.1 +8.5 96 +8 +8 1010.6 985.7 3
05 23.08 В 1
{3}
н/о н/о +9.4 +8.6 95 +9 +9 1011.7 986.8 2
06 23.08 Ю 1 н/о н/о +9.6 +8.8 95 +9 +9 1012.0 987.1
07 23.08 Ю 1
{3}
н/о н/о +9.9 +9.0 94 +9 +9 1012.4 987.5 0.2
08 23.08 ЮВ 1
{2}
н/о н/о +10.8 +9.9 94 +10 +10 1012.9 988.1 0.5
09 23.08 ЮВ 1
{2}
н/о н/о +11.4 +10.3 93 +11 +11 1013.5 988.7 0.2
10 23.08 ЮВ 1
{3}
н/о н/о +11.3 +10.2 93 +11 +11 1014.2 989.4 0.2
03 24.08 ЮВ 2
{4}
н/о н/о +11.3 +10.5 95 +10 +10 1022.1 997.1 0.1
04 24.08 ЮВ 1
{4}
н/о н/о +11.3 +10.4 94 +11 +11 1022.4 997.4
05 24.08 ЮВ 1
{4}
н/о н/о +11.5 +10.7 95 +11 +11 1022.2 997.2
06 24.08 ЮВ 2 н/о н/о +11.6 +10.8 95 +10 +10 1022.4 997.4
07 24.08 В 1
{2}
н/о н/о +12.0 +11.2 95 +12 +12 1022.4 997.4 0.1
08 24.08 В 1
{3}
н/о н/о +13.2 +11.9 92 +13 +13 1022.2 997.3
09 24.08 ЮВ 1
{4}
н/о н/о +12.8 +11.4 91 +13 +13 1022.6 997.7 0.1
10 24.08 В 1
{3}
н/о н/о +14.5 +11.5 82 +15 +15 1022.2 997.5
11 24.08 В 1
{3}
н/о н/о +15.4 +12.2 81 +16 +16 1021.8 997.1
12 24.08 ЮВ 1
{4}
н/о н/о +17.5 +12.6 73 +19 +19 1021.2 996.7
13 24.08 Ю 1
{2}
н/о н/о +17.8 +12.3 70 +19 +19 1021.0 996.6
14 24.08 штиль 0
{3}
н/о н/о +15.7 +12.8 83 +15 +15 1021.2 996.6 0.4
15 24.08 штиль 0
{3}
н/о н/о +16.1 +14.8 92 +16 +16 1021.3 996.7 0.1
16 24.08 В 2
{4}
н/о н/о +16.5 +13.4 82 +17 +17 1020.9 996.4
17 24.08 ЮВ 1
{3}
н/о н/о +16.7 +13.6 82 +18 +18 1020.4 995.9
18 24.08 Ю 1
{4}
н/о н/о +15.2 +14.1 93 +16 +16 1020.4 995.8 +11.6 +18.3 2
19 24.08 Ю 1
{2}
н/о н/о +14.8 +13.8 94 +15 +15 1020.5 995.8
20 24.08 Ю 1
{2}
н/о н/о +14.3 +13.5 95 +15 +15 1020.5 995.8
21 24.08 штиль 0
{2}
н/о н/о +14.6 +13.7 94 +14 +14 1020.5 995.8
22 24.08 Ю 1
{3}
н/о н/о +14.6 +13.3 92 +15 +15 1020.3 995.6
23 24.08 ЮЗ 1
{2}
н/о н/о +15.1 +13.1 88 +16 +16 1020.2 995.6
00 25.08 З 1
{3}
н/о н/о +15.5 +12.6 83 +16 +16 1019.9 995.3
01 25.08 СЗ 1
{2}
н/о н/о +15.6 +12.5 82 +16 +16 1020.0 995.4
02 25.08 Ю 1
{2}
н/о н/о +15.5 +12.3 81 +16 +16 1019.9 995.3
03 25.08 СВ 1
{2}
н/о н/о +16.3 +10.8 70 +17 +17 1019.7 995.2
04 25.08 В 1
{2}
н/о н/о +16.8 +11.3 70 +18 +18 1019.5 995.0
05 25.08 СЗ 1
{6}
н/о н/о +17.9 +10.0 60 +19 +19 1019.8 995.4
06 25.08 З 2
{9}
н/о н/о +18.4 +9.5 56 +19 +19 1020.0 995.6 +14.3 +18.7 0.1
07 25.08 СЗ 2
{6}
н/о н/о +18.1 +9.7 58 +19 +19 1020.3 995.9
08 25.08 З 1
{7}
н/о н/о +17.6 +9.5 59 +19 +19 1020.3 995.9
09 25.08 Ю 1
{3}
н/о н/о +17.2 +11.0 67 +18 +18 1020.4 995.9
10 25.08 ЮЗ 1
{3}
н/о н/о +17.7 +12.8 73 +19 +19 1020.4 996.0
11 25.08 ЮВ 1
{4}
н/о н/о +17.5 +12.0 70 +19 +19 1020.8 996.3
12 25.08 З 1
{7}
н/о н/о +18.0 +12.0 68 +19 +19 1020.8 996.4
13 25.08 СЗ 2
{4}
н/о н/о +18.6 +13.0 70 +20 +20 1021.0 996.6
14 25.08 СЗ 2
{4}
н/о н/о +18.8 +12.8 68 +20 +20 1020.9 996.5
15 25.08 ЮЗ 1
{3}
н/о н/о +19.1 +11.9 63 +21 +21 комфорт 1020.7 996.4
16 25.08 штиль 0
{1}
н/о н/о +19.1 +13.3 69 +20 +20 1020.4 996.1
17 25.08 штиль 0
{1}
н/о н/о +19.5 +13.9 70 +21 +21 комфорт 1020.1 995.8

 

Местоположение метеостанции Стрын-Крокен (Норвегия): широта 61.92 долгота 6.56 высота над уровнем моря 208 м.

В архиве по умолчанию представлена погода в Стрын-Крокене за последнюю неделю. Архивные данные за месяц целиком и за предыдущие месяцы, начиная с января 2011 года, Вы можете получить, выбрав интересующий диапазон дат из раскрывающегося списка и нажав кнопку "Ввод!".


*Определитесь, кто Вы:
робот инопланетянин человек

Внимание! Время в таблицах - всемирное. Для получения местного времени необходимо прибавить поправку, которая равна 1 ч.

Смотрите также архив погоды в соседних городах и на ближайших метеорологических станциях:

Погода в Сандан аэропорту (Норвегия) (26 км)
Погода в Аэропорту Орста-Волда (Норвегия) (38 км)
Погода в Фиске (Норвегия) (55 км)
Погода в Тафьорде (Норвегия) (57 км)
Погода во Фьерлэнде (Норвегия) (57 км)
Погода в Гротли (Норвегия) (59 км)
Погода во Флурё (Норвегия) (60 км)
Погода в Олесунне (Норвегия) (64 км)
Погода в Брате (Норвегия) (69 км)
Погода в Лебергсфелле (Норвегия) (69 км)

Пояснения к столбцам:

Ветер - указаны скорость ветра в м/с - средняя за 10 мин, порывы в срок и между сроками (в фигурных скобках) и направление, откуда дует ветер: С - северный, СВ - северо-восточный, В - восточный, ЮВ - юго-восточный, Ю - южный, ЮЗ - юго-западный, З - западный, СЗ - северо-западный.
Видимость - горизонтальная дальность видимости в метрах или километрах. При видимости от 1 до 10 км при отсутствии осадков обычно наблюдается дымка, при ухудшении видимости до 1 км и менее - туман. В сухую погоду видимость может ухудшаться дымом, пылью или мглою.
Явления - указаны атмосферные явления, наблюдавшиеся в срок или в последний час перед сроком; фигурными скобками обозначены явления, наблюдавшиеся между сроками (за 1-3 часа до срока); квадратными скобками обозначены град или гололедные отложения с указанием их диаметра в мм.
Облачность - указаны через наклонную черту общая и нижняя облачность в баллах и высота нижней границы облаков в метрах; квадратными скобками обозначены формы облаков: Ci - перистые, Cs - перисто-слоистые, Cc - перисто-кучевые, Ac - высококучевые, As - высокослоистые, Sc - слоисто-кучевые, Ns - слоисто-дождевые, Cu - кучевые, Cb - кучево-дождевые. Подробнее классификацию облаков см. в Атласе облаков (PDF).
T - Температура воздуха - температура, измеренная на высоте 2 м над землей.
Td - Температура точки росы - температура, при понижении до которой содержащийся в воздухе водяной пар достигнет насыщения.
f - Относительная влажность воздуха - влажноcть воздуха, измеренная на высоте 2 м над землей.
Te - Эффективная температура - температура, которую ощущает одетый по сезону человек в тени. Характеристика душности погоды. При расчете учитывается влияние влажности воздуха и скорости ветра на теплоощущения человека.
Tes - Эффективная температура на солнце - температура, которую ощущает человек, с поправкой на солнечный нагрев. Характеристика знойности погоды. Зависит от высоты солнца над горизонтом, облачности и скорости ветра. Ночью, в пасмурную погоду, а также при ветре 12 м/с и более поправка равна нулю.
P - Атмосферное давление - приведенное к уровню моря атмосферное давление.
Po - Атмосферное давление - измеренное на уровне метеостанции атмосферное давление.
Tmin - Минимальная температура - минимум температуры воздуха на высоте 2 м над землей.
Tmax - Максимальная температура - максимум температуры воздуха на высоте 2 м над землей.
R - Количество осадков - Количество выпавших осадков за период времени, мм. При наведении курсора мыши на число - период времени, за который выпало указанное количество осадков.
R24 - Количество осадков - Количество выпавших осадков за 24 часа, мм.
S - Снежный покров - Высота снежного покрова, см. При наведении курсора мыши на число - состояние снежного покрова и степень покрытия местности в баллах.